[[{"header":{"parameterUnit":"m.s-1","parameterCategory":1,"la1":30.2991,"la2":30.254,"lo1":-89.0895,"lo2":-89.0444,"dy":0.0017,"dx":0.0017,"nx":28,"ny":28,"refTime":"2024-07-12T09:00:00:Z","depth":0,"parameterNumber":2,"parameterNumberName":"U-component_of_WINDS"},"data":[0,0,0,0,0,0,0,0,0,0,0,0,0,0,0,0,0,0,0,0,0,0,0,0,0,0,0,0,0,0,0,0,0,0,0,0,0,0,0,0,0,0,0,0,0,0,0,0,0,0,0,0,0,0,0,0,0,0,2.1698,2.17,0,2.1812,2.1814,2.1815,2.1787,2.1785,2.1783,2.1781,2.1899,2.1904,2.1909,0,0,0,0,0,0,0,0,0,0,0,0,0,2.1458,2.1463,2.1698,2.17,2.1701,2.1812,2.1814,2.1815,2.1787,2.1785,2.1782,2.178,2.1897,2.1903,2.191,0,0,0,0,0,0,0,0,0,0,0,0,0,2.1567,2.1464,2.1698,2.1701,2.1702,2.1812,2.1814,2.1816,2.1788,2.1785,2.1781,2.1778,2.1895,2.1903,2.1911,2.2025,0,0,2.1935,2.1938,0,0,0,0,0,0,0,0,2.156,2.1575,2.1699,2.1701,2.1702,2.1782,2.1772,2.1886,2.1789,2.1755,2.1781,2.1777,2.1863,2.1873,2.1902,2.2031,2.2036,2.1935,2.194,2.1943,2.1946,0,0,0,0,0,0,0,2.1553,2.157,2.1743,2.1701,2.1703,2.1697,2.1708,2.1794,2.1827,2.1758,2.1756,2.177,2.1863,2.1894,2.1904,2.2038,2.1935,2.1942,2.1947,2.195,2.2266,2.227,0,0,0,0,0,0,2.1544,2.1564,2.174,2.1747,2.1622,2.1704,2.1717,2.176,2.1825,2.1832,2.1773,2.1768,2.1883,2.1895,2.1909,2.2047,2.1943,2.1951,2.1955,2.2263,2.2267,2.2271,0,0,0,0,0,0,2.1539,2.156,2.1735,2.1655,2.1677,2.1711,2.176,2.1764,2.1795,2.1837,2.1842,2.1799,2.1881,2.1898,2.1996,2.2051,2.1954,2.1961,2.2258,2.2264,2.2269,2.2324,0,0,0,0,0,0,2.1532,2.1558,2.1602,2.1656,2.1681,2.1821,2.1763,2.1769,2.1808,2.1804,2.1862,2.1869,2.1879,2.1985,2.2004,2.206,2.1967,2.2254,2.2261,2.2267,2.2318,2.2331,2.2343,0,0,0,0,0,2.1524,2.1613,2.1604,2.1625,2.1736,2.1824,2.1838,2.1848,2.1813,2.1857,2.1884,2.1867,2.2042,2.1995,2.2017,2.2075,2.225,2.2259,2.2267,2.2312,2.2329,2.2342,0,0,0,0,0,0,2.1564,2.162,2.1611,2.1721,2.1768,2.1819,2.1875,2.1865,2.1923,2.1917,2.1927,2.194,2.2041,2.2068,2.2015,2.219,2.2141,2.2154,2.2168,2.2184,2.2196,2.2187,2.1974,0,0,0,0,0,2.1586,2.1652,2.1698,2.179,2.1814,2.1841,2.1879,2.1883,2.1932,2.1952,2.1986,2.2035,2.2101,2.2144,2.2207,2.2322,2.2334,2.2373,2.2385,2.2395,2.2406,2.2469,2.2486,2.2299,2.2299,2.2299,0,0,2.1632,2.1671,2.1712,2.1799,2.1836,2.1904,2.1858,2.1932,2.1983,2.1963,2.2058,2.2085,2.2141,2.2248,2.2297,2.2274,2.2461,2.2406,2.2413,2.2419,2.2479,2.2497,2.2513,2.2304,2.2303,2.2302,0,0,2.175,2.1786,2.1867,2.1904,2.1961,2.1978,2.1997,2.205,2.2067,2.2163,2.2149,2.221,2.2324,2.2364,2.2399,2.2532,2.2519,2.2553,2.2617,2.2678,2.2692,2.2705,2.2752,2.2769,2.2563,2.2564,2.2564,0,2.18,2.1901,2.191,2.1985,2.2024,2.2009,2.2091,2.2128,2.2202,2.2229,2.2202,2.2344,2.238,2.2497,2.2529,2.2558,2.2581,2.2545,2.2689,2.2703,2.2715,2.276,2.2778,2.2567,2.2567,2.2566,2.2566,0,2.196,2.2031,2.2089,2.2161,2.2206,2.2285,2.2305,2.2351,2.235,2.237,2.2468,2.2511,2.2582,2.261,2.2611,2.2727,2.271,2.2687,2.2638,2.2736,2.2779,2.2796,2.2573,2.2571,2.257,2.2569,0,0,2.2106,2.2181,2.2202,2.2234,2.2295,2.235,2.2429,2.2497,2.2536,2.2588,2.2654,2.275,2.2728,2.2768,2.2773,2.2827,2.2929,2.2796,2.2797,2.2818,2.3059,2.3076,2.3096,2.2921,2.2924,2.2927,2.3054,0,2.2229,2.2366,2.2375,2.2499,2.2564,2.2551,2.2619,2.2664,2.2685,2.2744,2.2768,2.2836,2.2802,2.2826,2.2878,2.2905,2.2977,2.2896,2.2982,2.2985,2.2967,2.3118,2.3136,2.3254,2.307,2.3073,2.3075,0,2.2391,2.2447,2.2576,2.2628,2.2656,2.2716,2.278,2.2837,2.2888,2.29,2.2944,2.2942,2.3022,2.2971,2.3082,2.3027,2.3062,2.3081,2.3086,2.3094,2.3035,2.3129,2.3292,2.3309,2.3102,2.31,2.3098,0,2.2484,2.2592,2.2683,2.2711,2.2774,2.2817,2.2845,2.2892,2.2933,2.2989,2.3016,2.3081,2.3117,2.3167,2.3183,2.3144,2.3293,2.3243,2.3305,2.3305,2.3337,2.3334,2.3507,2.3361,2.3361,2.336,2.336,0,2.262,2.27,2.2726,2.2782,2.2871,2.2882,2.297,2.2996,2.3038,2.3099,2.3092,2.315,2.3167,2.3228,2.3241,2.3331,2.3347,2.3359,2.3361,2.3359,2.3358,2.3382,2.3374,2.3365,2.3364,2.3363,2.3362,0,2.2739,2.2759,2.2858,2.2909,2.2924,2.2987,2.3031,2.3085,2.3105,2.3182,2.3201,2.3233,2.3304,2.3325,2.3411,2.3419,2.3525,2.352,2.3507,2.3507,2.3567,2.3561,2.3761,2.3788,2.3625,2.3627,2.3628,0,2.2824,2.2884,2.2942,2.2982,2.3011,2.3076,2.3118,2.3131,2.3175,2.3237,2.3284,2.3354,2.3411,2.3526,2.3557,2.3622,2.3619,2.3684,2.3628,2.3624,2.3619,2.3615,2.362,2.3695,2.3696,2.3698,2.3699,0,2.2972,2.2979,2.3039,2.3102,2.3151,2.3202,2.3251,2.3284,2.3305,2.3354,2.3426,2.347,2.3558,2.3628,2.3694,2.3724,2.3715,2.3716,2.3734,2.3732,2.3722,2.3727,2.3535,2.3711,2.371,2.3709,2.3708,2.3708,2.3076,2.3129,2.3178,2.3244,2.3282,2.3328,2.3381,2.3407,2.3468,2.3539,2.3544,2.3622,2.3672,2.376,2.3793,2.3855,2.3836,2.3861,2.3868,2.3874,2.3878,2.3712,2.3867,2.3867,2.3867,2.3866,2.3866,0,2.3223,2.3254,2.3315,2.3383,2.3435,2.3422,2.3475,2.352,2.3589,2.3636,2.3691,2.3775,2.3842,2.3878,2.3946,2.3988,2.3986,2.4006,2.4002,2.4009,2.3892,2.387,2.4006,2.4006,2.4006,2.4006,2.4006,2.4006,2.3306,2.3395,2.3408,2.3516,2.3547,2.3623,2.3654,2.3696,2.3733,2.3826,2.3882,2.3905,2.3948,2.4018,2.4079,2.4088,2.4113,2.4135,2.4142,2.4032,2.4017,2.4004,2.3983,2.4141,2.4141,2.4253,2.4254,2.4255]},{"header":{"parameterUnit":"m.s-1","parameterCategory":1,"la1":30.2991,"la2":30.254,"lo1":-89.0895,"lo2":-89.0444,"dy":0.0017,"dx":0.0017,"nx":28,"ny":28,"refTime":"2024-07-12T09:00:00:Z","depth":0,"parameterNumber":3,"parameterNumberName":"V-component_of_WINDS"},"data":[0,0,0,0,0,0,0,0,0,0,0,0,0,0,0,0,0,0,0,0,0,0,0,0,0,0,0,0,0,0,0,0,0,0,0,0,0,0,0,0,0,0,0,0,0,0,0,0,0,0,0,0,0,0,0,0,0,0,-0.8423,-0.8423,0,-0.8409,-0.8409,-0.8408,-0.8414,-0.8415,-0.8415,-0.8415,-0.8399,-0.8399,-0.8398,0,0,0,0,0,0,0,0,0,0,0,0,0,-0.8454,-0.8453,-0.8423,-0.8423,-0.8423,-0.8409,-0.8409,-0.8408,-0.8414,-0.8415,-0.8415,-0.8416,-0.84,-0.8399,-0.8398,0,0,0,0,0,0,0,0,0,0,0,0,0,-0.844,-0.8453,-0.8423,-0.8424,-0.8424,-0.8409,-0.8409,-0.8408,-0.8414,-0.8415,-0.8415,-0.8416,-0.84,-0.8399,-0.8398,-0.838,0,0,-0.8394,-0.8394,0,0,0,0,0,0,0,0,-0.8441,-0.8439,-0.8424,-0.8424,-0.8424,-0.8414,-0.8414,-0.8399,-0.8414,-0.8418,-0.8415,-0.8416,-0.8404,-0.8402,-0.8398,-0.838,-0.8379,-0.8394,-0.8393,-0.8393,-0.8393,0,0,0,0,0,0,0,-0.8442,-0.8439,-0.8417,-0.8424,-0.8424,-0.8425,-0.8423,-0.8411,-0.8408,-0.8418,-0.8418,-0.8416,-0.8404,-0.8399,-0.8398,-0.8379,-0.8394,-0.8393,-0.8392,-0.8392,-0.8344,-0.8344,0,0,0,0,0,0,-0.8443,-0.844,-0.8418,-0.8417,-0.8434,-0.8424,-0.8422,-0.8417,-0.8408,-0.8407,-0.8416,-0.8417,-0.8401,-0.8399,-0.8397,-0.8376,-0.8393,-0.8392,-0.8391,-0.8345,-0.8344,-0.8344,0,0,0,0,0,0,-0.8443,-0.8441,-0.8418,-0.8429,-0.8426,-0.8423,-0.8416,-0.8416,-0.8412,-0.8407,-0.8406,-0.8412,-0.8401,-0.8399,-0.8385,-0.8376,-0.8391,-0.839,-0.8346,-0.8345,-0.8344,-0.8334,0,0,0,0,0,0,-0.8444,-0.8441,-0.8435,-0.8428,-0.8425,-0.8406,-0.8416,-0.8415,-0.841,-0.8411,-0.8403,-0.8402,-0.8402,-0.8386,-0.8383,-0.8374,-0.8389,-0.8346,-0.8345,-0.8344,-0.8335,-0.8333,-0.8331,0,0,0,0,0,-0.8445,-0.8432,-0.8434,-0.8432,-0.8417,-0.8406,-0.8404,-0.8404,-0.8409,-0.8403,-0.84,-0.8403,-0.8377,-0.8385,-0.8382,-0.8372,-0.8347,-0.8346,-0.8344,-0.8336,-0.8333,-0.8331,0,0,0,0,0,0,-0.8437,-0.8431,-0.8434,-0.8418,-0.8412,-0.8407,-0.8398,-0.8401,-0.8393,-0.8394,-0.8393,-0.8392,-0.8377,-0.8373,-0.8381,-0.8355,-0.8363,-0.8361,-0.8358,-0.8355,-0.8353,-0.8354,-0.8388,0,0,0,0,0,-0.8433,-0.8425,-0.842,-0.8407,-0.8404,-0.8402,-0.8396,-0.8397,-0.839,-0.8388,-0.8384,-0.8377,-0.8367,-0.8361,-0.8352,-0.8335,-0.8333,-0.8327,-0.8325,-0.8323,-0.8321,-0.8311,-0.8308,-0.8339,-0.8339,-0.8339,0,0,-0.8426,-0.8422,-0.8416,-0.8405,-0.84,-0.8391,-0.8399,-0.8389,-0.8382,-0.8386,-0.8372,-0.8369,-0.8361,-0.8345,-0.8338,-0.8342,-0.8312,-0.8321,-0.832,-0.8319,-0.8309,-0.8306,-0.8304,-0.8338,-0.8338,-0.8339,0,0,-0.8407,-0.8403,-0.8391,-0.8387,-0.838,-0.8379,-0.8376,-0.837,-0.8368,-0.8354,-0.8357,-0.8348,-0.8332,-0.8326,-0.8321,-0.83,-0.8302,-0.8297,-0.8286,-0.8276,-0.8274,-0.8272,-0.8264,-0.8261,-0.8295,-0.8295,-0.8295,0,-0.8398,-0.8384,-0.8385,-0.8374,-0.8369,-0.8373,-0.8361,-0.8356,-0.8347,-0.8343,-0.8348,-0.8327,-0.8322,-0.8305,-0.83,-0.8296,-0.8292,-0.8298,-0.8274,-0.8272,-0.827,-0.8262,-0.8259,-0.8295,-0.8295,-0.8295,-0.8295,0,-0.8373,-0.8363,-0.8355,-0.8346,-0.834,-0.8328,-0.8327,-0.8321,-0.8322,-0.8319,-0.8305,-0.83,-0.8289,-0.8285,-0.8286,-0.8268,-0.827,-0.8275,-0.8283,-0.8266,-0.8259,-0.8256,-0.8294,-0.8294,-0.8294,-0.8294,0,0,-0.8348,-0.834,-0.8337,-0.8332,-0.8325,-0.8318,-0.8306,-0.8297,-0.8291,-0.8284,-0.8274,-0.826,-0.8265,-0.8259,-0.8259,-0.8251,-0.8234,-0.8256,-0.8256,-0.8251,-0.8212,-0.8208,-0.8205,-0.8235,-0.8235,-0.8234,-0.8213,0,-0.8328,-0.8308,-0.8309,-0.829,-0.8281,-0.8285,-0.8275,-0.8269,-0.8267,-0.8258,-0.8256,-0.8246,-0.8252,-0.8249,-0.8241,-0.8237,-0.8225,-0.8239,-0.8225,-0.8225,-0.8226,-0.8201,-0.8197,-0.8177,-0.821,-0.8209,-0.8209,0,-0.8302,-0.8295,-0.8275,-0.8269,-0.8266,-0.8257,-0.8248,-0.824,-0.8233,-0.8232,-0.8226,-0.8227,-0.8215,-0.8224,-0.8207,-0.8216,-0.8211,-0.8208,-0.8207,-0.8205,-0.8215,-0.8198,-0.817,-0.8167,-0.8205,-0.8205,-0.8205,0,-0.8285,-0.827,-0.8257,-0.8253,-0.8246,-0.8239,-0.8236,-0.823,-0.8224,-0.8217,-0.8213,-0.8203,-0.8198,-0.8191,-0.8189,-0.8196,-0.8172,-0.8181,-0.817,-0.817,-0.8164,-0.8164,-0.8135,-0.8162,-0.8162,-0.8162,-0.8162,0,-0.8262,-0.825,-0.8249,-0.824,-0.8227,-0.8227,-0.8214,-0.8211,-0.8206,-0.8196,-0.8199,-0.819,-0.8189,-0.818,-0.8179,-0.8165,-0.8162,-0.8161,-0.816,-0.816,-0.816,-0.8156,-0.8157,-0.8161,-0.8161,-0.8161,-0.8162,0,-0.824,-0.8239,-0.8225,-0.8219,-0.8218,-0.8208,-0.8203,-0.8194,-0.8193,-0.8181,-0.8178,-0.8175,-0.8164,-0.8162,-0.815,-0.8149,-0.8131,-0.8133,-0.8134,-0.8134,-0.8123,-0.8124,-0.8089,-0.8084,-0.8115,-0.8114,-0.8114,0,-0.8225,-0.8216,-0.821,-0.8204,-0.82,-0.8191,-0.8185,-0.8185,-0.8179,-0.8171,-0.8163,-0.8153,-0.8145,-0.8127,-0.8123,-0.8113,-0.8114,-0.8103,-0.8113,-0.8113,-0.8113,-0.8114,-0.8112,-0.8101,-0.81,-0.81,-0.81,0,-0.8199,-0.8199,-0.8191,-0.8182,-0.8175,-0.8168,-0.8162,-0.8157,-0.8156,-0.8149,-0.8138,-0.8132,-0.8119,-0.8108,-0.8098,-0.8094,-0.8096,-0.8097,-0.8094,-0.8093,-0.8093,-0.8092,-0.8128,-0.8097,-0.8098,-0.8098,-0.8098,-0.8098,-0.818,-0.8172,-0.8166,-0.8157,-0.8152,-0.8146,-0.8138,-0.8135,-0.8126,-0.8116,-0.8116,-0.8104,-0.8098,-0.8085,-0.808,-0.807,-0.8074,-0.807,-0.8068,-0.8067,-0.8066,-0.8096,-0.8069,-0.8069,-0.8069,-0.8069,-0.8069,0,-0.8153,-0.815,-0.8141,-0.8132,-0.8125,-0.8128,-0.8121,-0.8114,-0.8104,-0.8098,-0.809,-0.8077,-0.8067,-0.8062,-0.8052,-0.8045,-0.8046,-0.8042,-0.8042,-0.8041,-0.8063,-0.8067,-0.8042,-0.8042,-0.8042,-0.8042,-0.8042,-0.8042,-0.8139,-0.8125,-0.8124,-0.8108,-0.8104,-0.8093,-0.8088,-0.8083,-0.8078,-0.8063,-0.8055,-0.8053,-0.8047,-0.8036,-0.8027,-0.8026,-0.8021,-0.8017,-0.8017,-0.8037,-0.804,-0.8042,-0.8046,-0.8016,-0.8016,-0.7995,-0.7995,-0.7995]}]]